Date,Time,Wetness (Wet Dry or Ice),Wind Speed (m/s),Temperature (C),Humidity (%),Pressure (mb),Radiation (W/m^2)
2023-02-27,04:50:00,DRY,4.13,4.10,53.0,772.00,0.0
2023-02-27,04:55:00,DRY,3.85,4.10,52.5,772.00,0.0
2023-02-27,05:00:00,DRY,4.20,4.10,52.3,772.00,0.0
2023-02-27,05:05:00,DRY,4.65,4.00,52.5,772.00,0.0
2023-02-27,05:10:00,DRY,4.23,4.40,53.7,772.00,0.0
2023-02-27,05:15:00,DRY,4.50,4.65,53.0,772.00,0.0
2023-02-27,05:20:00,DRY,5.33,4.63,53.0,772.00,0.0
2023-02-27,05:25:00,DRY,4.80,4.60,52.5,772.00,0.0
2023-02-27,05:30:00,DRY,3.77,4.50,53.7,772.00,0.0
2023-02-27,05:35:00,DRY,4.20,4.45,54.0,772.00,0.0
2023-02-27,05:40:00,DRY,3.97,4.83,52.0,772.00,0.0
2023-02-27,05:45:00,DRY,3.45,5.00,51.0,772.00,0.0
2023-02-27,05:50:00,DRY,4.80,5.10,50.0,772.00,0.0
2023-02-27,05:55:00,DRY,4.20,5.30,49.0,772.00,0.0
2023-02-27,06:00:00,DRY,3.83,5.33,48.3,772.00,0.0
2023-02-27,06:05:00,DRY,3.30,5.40,48.5,772.00,0.0
2023-02-27,06:10:00,DRY,3.93,5.30,50.0,772.00,0.0
2023-02-27,06:15:00,DRY,3.40,5.40,49.0,772.00,0.0
2023-02-27,06:20:00,DRY,3.37,5.40,48.7,772.67,0.0
2023-02-27,06:25:00,DRY,2.85,5.40,48.0,773.00,0.0
2023-02-27,06:30:00,DRY,2.63,5.23,49.3,773.00,0.0
2023-02-27,06:35:00,DRY,2.65,4.85,51.5,773.00,0.0
2023-02-27,06:40:00,DRY,2.00,4.83,52.3,773.00,0.0
2023-02-27,06:45:00,DRY,1.75,4.40,53.0,773.00,0.0
2023-02-27,06:50:00,DRY,1.97,3.97,55.3,773.00,0.0
2023-02-27,06:55:00,DRY,2.15,4.10,55.0,773.00,0.0
2023-02-27,07:00:00,DRY,2.67,3.90,56.7,773.00,0.0
2023-02-27,07:05:00,DRY,2.80,3.85,56.5,773.00,0.0
2023-02-27,07:10:00,DRY,2.83,3.80,56.0,773.00,0.0
2023-02-27,07:15:00,DRY,3.95,3.70,57.5,773.00,0.0
2023-02-27,07:20:00,DRY,3.47,3.63,58.3,773.00,0.0
2023-02-27,07:25:00,DRY,2.70,3.55,60.0,773.00,0.0
2023-02-27,07:30:00,DRY,4.20,3.47,56.7,773.00,0.0
2023-02-27,07:35:00,DRY,3.55,3.50,53.0,773.00,0.0
2023-02-27,07:40:00,DRY,3.73,3.27,40.7,773.00,4.3
2023-02-27,07:45:00,DRY,3.95,3.10,37.0,773.00,9.0
2023-02-27,07:50:00,DRY,3.10,3.47,33.7,773.00,15.0
2023-02-27,07:55:00,DRY,1.95,3.30,38.5,773.00,20.0
2023-02-27,08:00:00,DRY,2.27,3.77,36.3,773.00,26.7
2023-02-27,08:05:00,DRY,2.60,3.55,39.5,774.00,33.0
2023-02-27,08:10:00,DRY,2.67,3.53,40.7,774.00,45.0
2023-02-27,08:15:00,DRY,3.25,4.05,37.5,774.00,59.5
2023-02-27,08:20:00,DRY,3.57,4.27,36.7,774.00,73.3
2023-02-27,08:25:00,DRY,2.60,4.25,38.0,774.00,85.0
2023-02-27,08:30:00,DRY,2.73,4.20,38.0,774.00,89.7
2023-02-27,08:35:00,DRY,3.50,4.40,37.0,774.00,89.5
2023-02-27,08:40:00,DRY,2.57,4.27,37.3,774.00,138.3
2023-02-27,08:45:00,DRY,2.05,4.15,38.5,774.00,122.5
2023-02-27,08:50:00,DRY,3.05,4.15,38.0,774.00,140.0
2023-02-27,08:55:00,DRY,2.65,4.15,39.5,774.00,213.0
2023-02-27,09:00:00,DRY,2.17,4.27,39.0,774.00,266.0
2023-02-27,09:05:00,DRY,2.00,4.45,39.0,774.00,270.0
2023-02-27,09:10:00,DRY,2.43,4.53,38.3,774.00,322.7
2023-02-27,09:15:00,DRY,2.25,4.85,37.0,774.00,353.0
2023-02-27,09:20:00,DRY,2.07,5.00,35.3,774.00,377.0
2023-02-27,09:25:00,DRY,1.45,5.20,37.0,774.00,433.0
2023-02-27,09:30:00,DRY,1.07,5.43,37.0,774.67,466.3
2023-02-27,09:35:00,DRY,1.25,5.95,36.5,775.00,451.5
2023-02-27,09:40:00,DRY,0.90,6.00,34.3,775.00,398.3
2023-02-27,09:45:00,DRY,0.80,6.10,36.0,775.00,399.0
2023-02-27,09:50:00,DRY,1.57,6.63,38.7,775.00,377.7
2023-02-27,09:55:00,DRY,1.10,6.90,38.0,775.00,462.5
2023-02-27,10:00:00,DRY,1.43,7.00,39.0,775.00,544.0
2023-02-27,10:05:00,DRY,1.35,7.00,40.0,775.00,566.0
2023-02-27,10:10:00,DRY,0.93,6.50,38.7,775.00,579.7
2023-02-27,10:15:00,DRY,1.40,6.30,40.0,775.00,584.5
2023-02-27,10:20:00,DRY,0.87,6.23,43.0,775.00,591.0
2023-02-27,10:25:00,DRY,1.30,6.40,43.0,775.00,624.5
2023-02-27,10:30:00,DRY,1.53,6.33,46.7,775.00,639.7
2023-02-27,10:35:00,DRY,1.50,5.95,55.5,775.00,632.0
2023-02-27,10:40:00,DRY,1.67,5.70,63.3,775.00,679.0
2023-02-27,10:45:00,DRY,1.90,5.30,73.5,775.00,675.0
2023-02-27,10:50:00,DRY,1.87,5.13,78.3,775.00,690.7
2023-02-27,10:55:00,DRY,1.00,5.45,76.0,775.00,724.0
2023-02-27,11:00:00,DRY,2.10,5.90,76.0,775.00,743.7
2023-02-27,11:05:00,DRY,2.00,5.75,75.5,775.00,762.5
2023-02-27,11:10:00,DRY,2.27,5.57,79.3,775.00,734.7
2023-02-27,11:15:00,DRY,2.00,5.35,80.0,775.00,776.5
2023-02-27,11:20:00,DRY,2.63,5.50,79.0,775.00,783.0
2023-02-27,11:25:00,DRY,2.20,5.70,71.0,775.00,796.5
2023-02-27,11:30:00,DRY,1.57,5.80,70.7,775.00,800.0
2023-02-27,11:35:00,DRY,2.20,5.85,73.0,775.00,800.0
2023-02-27,11:40:00,DRY,2.20,5.77,70.3,775.00,785.0
2023-02-27,11:45:00,DRY,2.65,5.90,71.5,775.00,754.0
2023-02-27,11:50:00,DRY,2.73,5.67,70.7,775.00,789.3
2023-02-27,11:55:00,DRY,2.35,5.75,68.5,775.00,800.0
2023-02-27,12:00:00,DRY,3.07,5.90,77.0,775.00,800.0
2023-02-27,12:05:00,DRY,3.35,6.10,77.0,775.00,800.0
2023-02-27,12:10:00,DRY,2.67,6.30,64.7,775.00,800.0
2023-02-27,12:15:00,DRY,3.30,6.25,70.5,775.00,798.0
2023-02-27,12:20:00,DRY,2.90,5.93,72.0,775.00,779.0
2023-02-27,12:25:00,DRY,2.95,5.80,77.5,775.00,758.5
2023-02-27,12:30:00,DRY,1.37,6.27,83.7,775.00,800.0
2023-02-27,12:35:00,DRY,2.85,6.50,84.5,775.00,800.0
2023-02-27,12:40:00,DRY,2.27,6.53,87.0,775.00,787.0
2023-02-27,12:45:00,DRY,1.40,6.25,92.5,775.00,800.0
2023-02-27,12:50:00,DRY,1.93,6.83,82.0,775.00,800.0
2023-02-27,12:55:00,DRY,1.25,7.20,75.0,775.00,800.0
2023-02-27,13:00:00,DRY,2.07,7.83,57.7,775.00,800.0
2023-02-27,13:05:00,DRY,1.70,7.80,52.5,775.00,791.0
2023-02-27,13:10:00,DRY,2.77,7.40,56.7,775.00,800.0
2023-02-27,13:15:00,DRY,2.65,7.00,56.0,775.00,800.0
2023-02-27,13:20:00,DRY,2.60,7.07,55.7,775.00,800.0
2023-02-27,13:25:00,DRY,2.85,7.25,58.5,775.00,800.0
2023-02-27,13:30:00,DRY,3.20,7.40,68.0,775.00,800.0
2023-02-27,13:35:00,DRY,2.00,6.50,82.0,775.00,800.0
2023-02-27,13:40:00,DRY,2.47,6.77,71.0,775.00,800.0
2023-02-27,13:45:00,DRY,2.40,7.10,50.5,775.00,800.0
2023-02-27,13:50:00,DRY,2.67,7.07,56.3,775.00,800.0
2023-02-27,13:55:00,DRY,2.30,7.00,66.5,775.00,800.0
2023-02-27,14:00:00,DRY,2.97,6.70,81.3,774.33,793.0
2023-02-27,14:05:00,DRY,2.65,6.70,83.5,774.00,800.0
2023-02-27,14:10:00,DRY,2.37,6.47,80.0,774.00,789.0
2023-02-27,14:15:00,DRY,1.60,6.90,70.5,774.00,800.0
2023-02-27,14:20:00,DRY,1.83,7.57,63.0,774.00,800.0
2023-02-27,14:25:00,DRY,2.10,8.10,53.5,774.00,800.0
2023-02-27,14:30:00,DRY,2.50,8.33,43.0,774.00,800.0
2023-02-27,14:35:00,DRY,2.15,8.45,55.5,774.00,800.0
2023-02-27,14:40:00,DRY,2.60,7.93,75.7,774.00,800.0
2023-02-27,14:45:00,DRY,1.80,6.95,83.0,774.00,800.0
2023-02-27,14:50:00,DRY,1.83,6.77,74.0,774.00,800.0
2023-02-27,14:55:00,DRY,2.10,7.10,49.0,774.00,800.0
2023-02-27,15:00:00,DRY,1.33,7.77,40.0,774.00,800.0
2023-02-27,15:05:00,DRY,2.65,8.50,40.0,774.00,800.0
2023-02-27,15:10:00,DRY,2.53,8.60,40.3,774.00,794.0
2023-02-27,15:15:00,DRY,2.75,8.75,43.0,774.00,782.0
2023-02-27,15:20:00,DRY,2.80,9.50,43.0,774.00,771.3
2023-02-27,15:25:00,DRY,3.30,9.35,40.5,774.00,758.5
2023-02-27,15:30:00,DRY,2.43,9.37,41.7,774.00,746.0
2023-02-27,15:35:00,DRY,2.25,9.35,40.0,774.00,732.0
2023-02-27,15:40:00,DRY,2.20,9.40,41.3,774.00,717.3
2023-02-27,15:45:00,DRY,2.05,9.25,42.5,774.00,703.5
2023-02-27,15:50:00,DRY,1.90,9.57,42.7,774.00,686.7
2023-02-27,15:55:00,DRY,1.95,9.50,40.0,774.00,671.5
2023-02-27,16:00:00,DRY,1.90,9.07,40.3,774.00,658.3
2023-02-27,16:05:00,DRY,1.70,8.70,40.0,774.00,642.5
2023-02-27,16:10:00,DRY,1.83,9.00,40.3,774.00,628.0
2023-02-27,16:15:00,DRY,1.60,9.05,40.0,774.00,612.0
2023-02-27,16:20:00,DRY,1.83,8.90,39.7,774.00,594.3
2023-02-27,16:25:00,DRY,1.35,9.00,49.0,774.00,577.5
2023-02-27,16:30:00,DRY,1.50,8.43,48.3,774.00,559.7
2023-02-27,16:35:00,DRY,1.10,8.05,44.0,774.00,543.0
2023-02-27,16:40:00,DRY,1.60,8.27,42.0,774.00,525.7
2023-02-27,16:45:00,DRY,1.80,8.55,42.0,774.00,508.0
2023-02-27,16:50:00,DRY,1.40,8.30,44.7,774.00,488.3
2023-02-27,16:55:00,DRY,1.60,7.85,38.0,774.00,468.5
2023-02-27,17:00:00,DRY,1.63,7.83,47.7,774.00,450.3
2023-02-27,17:05:00,DRY,2.15,7.65,51.0,774.00,430.5
2023-02-27,17:10:00,DRY,1.90,7.23,54.3,774.00,411.3
2023-02-27,17:15:00,DRY,2.45,6.80,57.0,774.00,392.5
2023-02-27,17:20:00,DRY,2.13,6.70,49.7,774.00,373.3
2023-02-27,17:25:00,DRY,2.20,6.55,56.0,774.00,353.5
2023-02-27,17:30:00,DRY,2.80,6.50,49.3,774.00,334.0
2023-02-27,17:35:00,DRY,3.00,6.45,52.0,774.00,314.5
2023-02-27,17:40:00,DRY,2.63,6.40,53.3,774.00,293.7
2023-02-27,17:45:00,DRY,2.05,6.25,56.5,774.00,272.5
2023-02-27,17:50:00,DRY,2.67,6.03,51.3,774.00,252.0
2023-02-27,17:55:00,DRY,3.05,5.85,55.5,774.00,232.5
2023-02-27,18:00:00,DRY,3.23,5.63,57.7,774.00,212.0
2023-02-27,18:05:00,DRY,2.30,5.35,68.0,774.00,190.5
2023-02-27,18:10:00,DRY,2.50,5.27,58.7,774.00,171.7
2023-02-27,18:15:00,DRY,3.35,5.40,55.5,774.00,152.0
2023-02-27,18:20:00,DRY,3.17,5.13,60.7,774.67,132.0
2023-02-27,18:25:00,DRY,3.30,4.75,63.5,775.00,112.5
2023-02-27,18:30:00,DRY,2.73,4.60,61.7,775.00,95.0
2023-02-27,18:35:00,DRY,2.90,4.70,59.5,775.00,77.0
2023-02-27,18:40:00,DRY,3.03,4.67,58.7,775.00,59.3
2023-02-27,18:45:00,DRY,2.55,4.50,60.5,775.00,42.5
2023-02-27,18:50:00,DRY,2.57,4.53,58.0,775.00,17.7
2023-02-27,18:55:00,DRY,1.65,4.55,59.0,775.00,7.5
2023-02-27,19:00:00,DRY,2.00,4.30,58.7,775.00,4.0
2023-02-27,19:05:00,DRY,1.90,4.25,59.5,775.00,1.5
2023-02-27,19:10:00,DRY,2.50,3.93,62.0,775.00,0.0
2023-02-27,19:15:00,DRY,2.85,3.90,61.5,775.00,0.0
2023-02-27,19:20:00,DRY,2.97,3.97,60.3,775.00,0.0
2023-02-27,19:25:00,DRY,2.85,3.95,60.0,775.00,0.0
2023-02-27,19:30:00,DRY,3.03,4.00,58.7,775.00,0.0
2023-02-27,19:35:00,DRY,3.10,3.90,57.0,775.00,0.0
2023-02-27,19:40:00,DRY,2.87,3.87,61.7,775.00,0.0
2023-02-27,19:45:00,DRY,2.20,4.00,55.5,775.00,0.0
2023-02-27,19:50:00,DRY,3.27,4.03,57.3,775.00,0.0
2023-02-27,19:55:00,DRY,3.50,3.65,64.5,775.00,0.0
2023-02-27,20:00:00,DRY,3.07,3.47,65.0,775.00,0.0
2023-02-27,20:05:00,DRY,3.45,3.60,62.5,775.00,0.0
2023-02-27,20:10:00,DRY,3.27,3.80,61.3,775.00,0.0
2023-02-27,20:15:00,DRY,3.65,3.70,58.5,775.00,0.0
2023-02-27,20:20:00,DRY,4.23,3.47,59.0,775.00,0.0
2023-02-27,20:25:00,DRY,3.70,3.20,75.0,775.00,0.0
2023-02-27,20:30:00,DRY,3.27,2.53,87.3,775.00,0.0
2023-02-27,20:35:00,DRY,3.25,2.55,80.0,775.00,0.0
2023-02-27,20:40:00,DRY,3.43,3.37,59.0,775.00,0.0
2023-02-27,20:45:00,DRY,3.20,3.80,54.0,775.50,0.0
2023-02-27,20:50:00,DRY,2.73,3.80,51.7,776.00,0.0
2023-02-27,20:55:00,DRY,1.75,4.10,51.0,776.00,0.0
2023-02-27,21:00:00,DRY,3.47,5.67,40.0,776.00,0.0
2023-02-27,21:05:00,DRY,3.10,5.80,42.5,776.00,0.0
2023-02-27,21:10:00,DRY,4.20,5.07,51.3,776.00,0.0
2023-02-27,21:15:00,DRY,3.20,4.90,51.5,776.00,0.0
2023-02-27,21:20:00,DRY,5.07,5.13,48.0,776.00,0.0
2023-02-27,21:25:00,DRY,3.65,4.95,54.0,776.00,0.0
2023-02-27,21:30:00,DRY,4.10,4.57,55.7,776.00,0.0
2023-02-27,21:35:00,DRY,4.55,4.85,51.5,776.00,0.0
2023-02-27,21:40:00,DRY,4.47,5.80,41.3,776.00,0.0
2023-02-27,21:45:00,DRY,4.15,6.60,35.5,776.00,0.0
2023-02-27,21:50:00,DRY,4.20,6.47,34.7,776.00,0.0
2023-02-27,21:55:00,DRY,2.35,5.40,47.5,776.00,0.0
2023-02-27,22:00:00,DRY,3.20,5.10,51.3,776.00,0.0
2023-02-27,22:05:00,DRY,3.55,5.35,47.5,776.00,0.0
2023-02-27,22:10:00,DRY,4.50,6.07,37.0,776.00,0.0
2023-02-27,22:15:00,DRY,4.30,5.85,39.0,776.00,0.0
2023-02-27,22:20:00,DRY,3.63,5.53,42.7,776.00,0.0
2023-02-27,22:25:00,DRY,5.35,5.35,45.5,776.00,0.0
2023-02-27,22:30:00,DRY,3.97,5.27,49.0,776.00,0.0
2023-02-27,22:35:00,DRY,3.35,5.00,53.0,776.00,0.0
2023-02-27,22:40:00,DRY,4.00,5.03,52.7,776.00,0.0
2023-02-27,22:45:00,DRY,3.45,5.10,53.0,776.00,0.0
2023-02-27,22:50:00,DRY,3.53,5.10,53.0,776.00,0.0
2023-02-27,22:55:00,DRY,3.25,5.00,56.0,776.00,0.0
2023-02-27,23:00:00,DRY,3.83,5.00,55.3,776.00,0.0
2023-02-27,23:05:00,DRY,3.15,5.00,54.0,776.00,0.0
2023-02-27,23:10:00,DRY,4.27,5.00,54.0,776.00,0.0
2023-02-27,23:15:00,DRY,3.75,5.00,51.5,776.00,0.0
2023-02-27,23:20:00,DRY,3.63,5.10,46.0,776.00,0.0
2023-02-27,23:25:00,DRY,4.05,5.05,45.5,776.00,0.0
2023-02-27,23:30:00,DRY,4.20,5.07,45.3,776.00,0.0
2023-02-27,23:35:00,DRY,4.60,5.20,45.0,776.00,0.0
2023-02-27,23:40:00,DRY,4.00,5.20,46.3,776.00,0.0
2023-02-27,23:45:00,DRY,4.50,5.10,44.5,776.00,0.0
2023-02-27,23:50:00,DRY,4.63,5.17,43.7,776.00,0.0
2023-02-27,23:55:00,DRY,4.35,5.40,45.5,776.00,0.0
2023-02-28,00:00:00,DRY,4.10,5.47,42.7,776.00,0.0
2023-02-28,00:05:00,DRY,3.60,5.40,41.0,776.00,0.0
2023-02-28,00:10:00,DRY,4.40,5.50,44.3,776.00,0.0
2023-02-28,00:15:00,DRY,4.35,5.45,47.0,776.00,0.0
2023-02-28,00:20:00,DRY,3.33,5.30,47.3,776.00,0.0
2023-02-28,00:25:00,DRY,4.85,5.30,47.5,776.00,0.0
2023-02-28,00:30:00,DRY,4.17,5.53,47.7,776.00,0.0
2023-02-28,00:35:00,DRY,3.30,5.75,47.5,776.00,0.0
2023-02-28,00:40:00,DRY,3.33,5.90,46.7,776.00,0.0
2023-02-28,00:45:00,DRY,2.90,5.75,47.5,776.00,0.0
2023-02-28,00:50:00,DRY,3.23,5.77,49.3,776.00,0.0
2023-02-28,00:55:00,DRY,3.25,5.75,50.5,776.00,0.0
2023-02-28,01:00:00,DRY,2.73,5.73,48.3,776.00,0.0
2023-02-28,01:05:00,DRY,2.35,5.95,45.0,776.00,0.0
2023-02-28,01:10:00,DRY,3.53,6.07,47.3,776.00,0.0
2023-02-28,01:15:00,DRY,2.55,5.85,49.5,776.00,0.0
2023-02-28,01:20:00,DRY,3.03,5.80,50.3,776.00,0.0
2023-02-28,01:25:00,DRY,3.10,5.85,50.0,776.00,0.0
2023-02-28,01:30:00,DRY,3.17,5.73,50.0,776.00,0.0
2023-02-28,01:35:00,DRY,3.45,5.70,48.5,776.00,0.0
2023-02-28,01:40:00,DRY,3.57,5.80,49.3,776.00,0.0
2023-02-28,01:45:00,DRY,2.65,5.75,48.0,776.00,0.0
2023-02-28,01:50:00,DRY,3.17,5.63,50.0,776.00,0.0
2023-02-28,01:55:00,DRY,3.95,5.60,49.0,776.00,0.0
2023-02-28,02:00:00,DRY,3.03,5.73,48.0,776.00,0.0
2023-02-28,02:05:00,DRY,4.50,5.75,47.5,776.00,0.0
2023-02-28,02:10:00,DRY,4.00,5.60,47.7,776.00,0.0
2023-02-28,02:15:00,DRY,3.65,5.55,47.0,776.00,0.0
2023-02-28,02:20:00,DRY,3.67,5.73,46.0,776.00,0.0
2023-02-28,02:25:00,DRY,3.15,5.60,45.5,776.00,0.0
2023-02-28,02:30:00,DRY,3.80,5.60,42.7,776.00,0.0
2023-02-28,02:35:00,DRY,3.80,5.85,42.5,776.00,0.0
2023-02-28,02:40:00,DRY,3.30,5.77,41.3,776.00,0.0
2023-02-28,02:45:00,DRY,3.95,5.70,44.5,776.00,0.0
2023-02-28,02:50:00,DRY,3.70,5.73,44.7,776.00,0.0
2023-02-28,02:55:00,DRY,3.40,5.75,44.0,776.00,0.0
2023-02-28,03:00:00,DRY,3.00,5.63,45.3,776.00,0.0
2023-02-28,03:05:00,DRY,3.45,5.50,44.5,776.00,0.0
2023-02-28,03:10:00,DRY,3.53,5.83,41.7,776.00,0.0
2023-02-28,03:15:00,DRY,3.00,5.90,40.5,776.00,0.0
2023-02-28,03:20:00,DRY,3.23,5.87,40.3,776.00,0.0
2023-02-28,03:25:00,DRY,3.15,5.75,41.5,775.50,0.0
2023-02-28,03:30:00,DRY,2.70,5.70,41.3,775.33,0.0
2023-02-28,03:35:00,DRY,2.00,6.00,38.5,775.00,0.0
2023-02-28,03:40:00,DRY,2.27,6.27,37.0,775.33,0.0
2023-02-28,03:45:00,DRY,2.25,6.65,35.5,775.00,0.0
2023-02-28,03:50:00,DRY,2.20,7.13,33.3,775.67,0.0
2023-02-28,03:55:00,DRY,2.75,6.45,37.5,776.00,0.0
2023-02-28,04:00:00,DRY,2.80,5.83,39.7,775.00,0.0
2023-02-28,04:05:00,DRY,2.95,5.80,40.0,775.00,0.0
2023-02-28,04:10:00,DRY,2.83,5.87,39.3,775.00,0.0
2023-02-28,04:15:00,DRY,2.55,6.00,40.0,775.50,0.0
2023-02-28,04:20:00,DRY,2.47,6.00,39.3,776.00,0.0
2023-02-28,04:25:00,DRY,2.50,5.95,40.5,776.00,0.0
2023-02-28,04:30:00,DRY,2.53,6.23,38.7,776.00,0.0
2023-02-28,04:35:00,DRY,2.30,6.10,39.0,776.00,0.0
2023-02-28,04:40:00,DRY,2.83,6.90,32.7,776.00,0.0
2023-02-28,04:45:00,DRY,3.70,7.85,27.5,776.00,0.0
2023-02-28,04:50:00,DRY,2.83,7.73,29.0,776.00,0.0
2023-02-28,04:55:00,DRY,1.75,6.45,35.5,775.50,0.0
2023-02-28,05:00:00,DRY,1.73,5.97,39.3,776.00,0.0
2023-02-28,05:05:00,DRY,1.75,5.55,44.0,776.00,0.0
2023-02-28,05:10:00,DRY,1.97,5.70,41.7,776.00,0.0
2023-02-28,05:15:00,DRY,1.45,5.95,37.5,776.00,0.0
2023-02-28,05:20:00,DRY,2.97,7.07,28.3,776.00,0.0
2023-02-28,05:25:00,DRY,2.30,8.05,23.5,776.00,0.0
2023-02-28,05:30:00,DRY,2.83,7.70,26.7,776.00,0.0
2023-02-28,05:35:00,DRY,1.75,7.50,27.5,776.00,0.0
2023-02-28,05:40:00,DRY,1.80,7.60,28.0,776.00,0.0
2023-02-28,05:45:00,DRY,2.55,7.60,28.5,776.00,0.0
2023-02-28,05:50:00,DRY,2.33,7.27,30.7,776.00,0.0
2023-02-28,05:55:00,DRY,1.50,7.20,31.0,776.00,0.0
2023-02-28,06:00:00,DRY,1.47,6.97,31.7,776.00,0.0
2023-02-28,06:05:00,DRY,2.65,7.15,30.5,776.00,0.0
2023-02-28,06:10:00,DRY,2.47,6.83,33.0,776.00,0.0
2023-02-28,06:15:00,DRY,1.60,6.55,32.5,776.00,0.0
2023-02-28,06:20:00,DRY,2.27,7.33,30.3,776.00,0.0
2023-02-28,06:25:00,DRY,4.45,7.10,32.5,776.00,0.0
2023-02-28,06:30:00,DRY,1.27,6.57,34.0,776.00,0.0
2023-02-28,06:35:00,DRY,0.55,6.85,31.5,776.00,0.0
2023-02-28,06:40:00,DRY,1.07,6.83,32.3,776.00,0.0
2023-02-28,06:45:00,DRY,1.85,6.70,32.0,776.00,0.0
2023-02-28,06:50:00,DRY,1.63,7.27,30.3,776.00,0.0
2023-02-28,06:55:00,DRY,1.95,6.90,32.5,776.00,0.0
2023-02-28,07:00:00,DRY,2.47,6.87,32.3,776.00,0.0
2023-02-28,07:05:00,DRY,1.55,6.90,32.5,776.00,0.0
2023-02-28,07:10:00,DRY,1.93,6.20,36.3,776.00,0.0
2023-02-28,07:15:00,DRY,1.80,6.15,37.0,776.00,0.0
2023-02-28,07:20:00,DRY,1.67,6.20,36.0,776.00,0.0
2023-02-28,07:25:00,DRY,2.30,6.15,37.0,776.00,0.0
2023-02-28,07:30:00,DRY,2.97,6.13,38.0,776.00,0.0
2023-02-28,07:35:00,DRY,2.05,6.20,37.0,776.00,0.0
2023-02-28,07:40:00,DRY,2.87,6.20,36.7,776.00,1.0
2023-02-28,07:45:00,DRY,2.50,6.25,38.5,776.00,4.0
2023-02-28,07:50:00,DRY,1.83,6.10,38.3,776.00,7.0
2023-02-28,07:55:00,DRY,3.05,6.05,37.5,776.00,10.0
2023-02-28,08:00:00,DRY,2.30,6.23,36.7,776.33,14.0
2023-02-28,08:05:00,DRY,3.30,6.40,36.5,777.00,17.5
2023-02-28,08:10:00,DRY,2.97,6.23,39.0,777.00,19.7
2023-02-28,08:15:00,DRY,3.10,6.15,40.0,777.00,22.5
2023-02-28,08:20:00,DRY,2.77,6.17,41.3,777.00,25.0
2023-02-28,08:25:00,DRY,3.10,6.20,41.0,777.00,27.5
2023-02-28,08:30:00,DRY,3.20,6.33,40.7,777.00,30.0
2023-02-28,08:35:00,DRY,3.30,6.45,39.5,777.00,80.5
2023-02-28,08:40:00,DRY,3.50,6.63,39.3,777.00,229.0
2023-02-28,08:45:00,DRY,3.15,6.95,38.0,777.00,248.5
2023-02-28,08:50:00,DRY,3.53,7.17,37.0,777.00,269.3
2023-02-28,08:55:00,DRY,3.35,7.20,37.0,777.00,289.5
2023-02-28,09:00:00,DRY,3.20,7.30,36.7,777.00,311.0
2023-02-28,09:05:00,DRY,2.70,7.30,36.5,777.00,331.0
2023-02-28,09:10:00,DRY,2.60,7.33,38.3,777.00,352.0
2023-02-28,09:15:00,DRY,3.05,7.25,40.0,777.00,371.5
2023-02-28,09:20:00,DRY,3.17,7.23,39.3,777.00,391.7
2023-02-28,09:25:00,DRY,2.15,7.40,38.5,777.00,411.5
2023-02-28,09:30:00,DRY,3.00,7.57,39.0,777.00,431.0
2023-02-28,09:35:00,DRY,1.95,7.65,36.0,777.00,450.5
2023-02-28,09:40:00,DRY,2.43,7.80,36.0,777.00,470.7
2023-02-28,09:45:00,DRY,3.25,7.90,37.0,777.00,489.5
2023-02-28,09:50:00,DRY,2.37,8.07,37.3,777.67,508.0
2023-02-28,09:55:00,DRY,2.35,8.05,37.5,778.00,526.5
2023-02-28,10:00:00,DRY,2.57,8.07,38.3,778.00,544.7
2023-02-28,10:05:00,DRY,2.90,8.20,37.5,778.00,562.5
2023-02-28,10:10:00,DRY,1.93,8.53,35.7,778.00,579.7
2023-02-28,10:15:00,DRY,1.15,8.90,34.5,778.00,597.5
2023-02-28,10:20:00,DRY,2.27,9.13,33.7,778.00,614.3
2023-02-28,10:25:00,DRY,2.65,9.05,34.0,778.00,630.0
2023-02-28,10:30:00,DRY,1.97,8.93,36.0,778.00,645.0
2023-02-28,10:35:00,DRY,1.85,9.10,35.0,778.00,659.5
2023-02-28,10:40:00,DRY,1.90,9.13,34.3,778.00,674.7
2023-02-28,10:45:00,DRY,1.60,9.40,35.5,778.00,689.0
2023-02-28,10:50:00,DRY,1.97,9.53,36.7,778.00,703.3
2023-02-28,10:55:00,DRY,1.60,9.40,33.0,778.00,717.0
2023-02-28,11:00:00,DRY,2.07,9.67,34.0,778.00,731.7
2023-02-28,11:05:00,DRY,2.55,9.75,32.0,778.00,745.5
2023-02-28,11:10:00,DRY,2.17,9.63,34.3,778.00,759.7
2023-02-28,11:15:00,DRY,1.85,9.90,35.5,778.00,772.5
2023-02-28,11:20:00,DRY,2.30,9.80,35.7,778.00,784.0
2023-02-28,11:25:00,DRY,2.40,10.10,36.5,778.00,795.0
2023-02-28,11:30:00,DRY,1.63,10.13,36.3,778.00,800.0
2023-02-28,11:35:00,DRY,1.85,10.30,39.0,778.00,800.0
2023-02-28,11:40:00,DRY,2.50,10.00,41.7,777.33,800.0
2023-02-28,11:45:00,DRY,2.25,10.05,45.5,777.00,800.0
2023-02-28,11:50:00,DRY,2.30,10.17,48.3,777.67,800.0
2023-02-28,11:55:00,DRY,1.50,9.90,49.5,777.00,800.0
2023-02-28,12:00:00,WET,1.43,9.97,53.7,777.00,800.0
2023-02-28,12:05:00,DRY,1.65,10.20,55.5,777.00,800.0
2023-02-28,12:10:00,DRY,2.17,10.20,56.0,777.00,800.0
2023-02-28,12:15:00,DRY,2.05,10.05,54.0,777.00,800.0
2023-02-28,12:20:00,DRY,2.00,9.87,50.7,777.00,800.0
2023-02-28,12:25:00,DRY,2.70,10.00,58.0,777.00,800.0
2023-02-28,12:30:00,DRY,1.67,10.30,56.0,777.00,800.0
2023-02-28,12:35:00,DRY,2.00,10.80,50.5,777.00,800.0
2023-02-28,12:40:00,DRY,1.87,11.03,54.7,777.00,800.0
2023-02-28,12:45:00,DRY,2.30,11.15,52.0,777.00,800.0
2023-02-28,12:50:00,DRY,2.63,10.80,61.7,777.00,800.0
2023-02-28,12:55:00,DRY,2.10,10.05,77.0,777.00,800.0
2023-02-28,13:00:00,DRY,1.33,10.07,75.7,777.00,800.0
2023-02-28,13:05:00,DRY,1.85,10.10,73.5,777.00,800.0
2023-02-28,13:10:00,DRY,1.93,10.40,71.0,777.00,800.0
2023-02-28,13:15:00,DRY,2.75,10.40,71.0,777.00,800.0
2023-02-28,13:20:00,DRY,2.73,10.50,61.3,777.00,800.0
2023-02-28,13:25:00,DRY,2.75,10.50,63.0,777.00,800.0
2023-02-28,13:30:00,DRY,2.15,10.30,73.0,777.00,800.0
2023-02-28,13:35:00,DRY,2.40,10.50,78.0,777.00,800.0
2023-02-28,13:40:00,DRY,1.57,10.20,74.0,777.00,800.0
2023-02-28,13:45:00,DRY,2.10,10.40,76.0,777.00,800.0
2023-02-28,13:50:00,DRY,2.00,10.33,74.0,777.00,800.0
2023-02-28,13:55:00,DRY,2.40,10.50,71.5,777.00,800.0
2023-02-28,14:00:00,DRY,1.93,10.23,71.0,777.00,800.0
2023-02-28,14:05:00,DRY,1.25,10.65,64.0,777.00,800.0
2023-02-28,14:10:00,DRY,2.03,10.83,62.7,776.33,800.0
2023-02-28,14:15:00,DRY,2.65,11.25,63.5,776.00,800.0
2023-02-28,14:20:00,DRY,2.37,10.90,66.7,776.00,800.0
2023-02-28,14:25:00,DRY,2.05,10.95,68.5,776.00,800.0
2023-02-28,14:30:00,DRY,2.00,11.10,66.7,776.00,800.0
2023-02-28,14:35:00,DRY,2.10,11.45,59.5,776.00,800.0
2023-02-28,14:40:00,DRY,2.63,10.60,69.3,776.00,800.0
2023-02-28,14:45:00,DRY,1.85,10.85,66.0,776.00,800.0
2023-02-28,14:50:00,DRY,2.27,10.77,64.3,776.00,800.0
2023-02-28,14:55:00,DRY,2.90,10.50,66.5,776.00,800.0
2023-02-28,15:00:00,DRY,1.43,10.67,71.0,776.00,800.0
2023-02-28,15:05:00,DRY,1.85,10.65,67.0,776.00,800.0
2023-02-28,15:10:00,DRY,1.43,10.63,68.3,776.00,796.0
2023-02-28,15:15:00,DRY,1.60,10.95,56.0,776.00,783.5
2023-02-28,15:20:00,DRY,1.67,11.27,44.7,776.00,771.0
2023-02-28,15:25:00,DRY,2.40,11.30,48.5,776.00,757.0
2023-02-28,15:30:00,DRY,1.93,11.47,45.7,776.00,745.7
2023-02-28,15:35:00,DRY,1.00,11.40,54.0,776.00,730.5
2023-02-28,15:40:00,DRY,1.57,11.00,53.7,776.00,725.7
2023-02-28,15:45:00,DRY,1.50,11.00,56.0,776.00,702.5
2023-02-28,15:50:00,DRY,1.97,10.80,56.7,776.00,695.7
2023-02-28,15:55:00,DRY,2.25,10.85,60.0,776.00,679.5
2023-02-28,16:00:00,DRY,1.83,10.93,60.3,776.00,665.3
2023-02-28,16:05:00,DRY,1.70,10.65,58.5,776.00,650.0
2023-02-28,16:10:00,DRY,0.83,11.13,59.7,776.00,631.7
2023-02-28,16:15:00,DRY,0.80,11.75,56.0,776.00,614.5
2023-02-28,16:20:00,DRY,1.67,11.93,54.0,776.00,598.0
2023-02-28,16:25:00,DRY,2.30,11.20,58.0,776.00,585.0
2023-02-28,16:30:00,DRY,1.53,10.63,68.7,776.00,565.3
2023-02-28,16:35:00,DRY,1.25,10.70,59.0,776.00,546.5
2023-02-28,16:40:00,DRY,0.87,11.20,54.0,776.00,525.3
2023-02-28,16:45:00,DRY,0.60,11.35,55.5,776.00,507.0
2023-02-28,16:50:00,DRY,0.97,11.30,65.7,776.00,489.3
2023-02-28,16:55:00,DRY,0.90,10.95,69.5,776.00,470.5
2023-02-28,17:00:00,DRY,1.63,11.00,69.3,776.00,452.7
2023-02-28,17:05:00,DRY,1.50,10.25,73.0,776.00,435.0
2023-02-28,17:10:00,DRY,1.37,10.20,71.7,776.00,413.7
2023-02-28,17:15:00,DRY,1.55,10.30,71.0,776.00,392.0
2023-02-28,17:20:00,DRY,1.07,10.10,72.7,776.00,376.0
2023-02-28,17:25:00,DRY,1.00,10.50,67.0,776.00,356.0
2023-02-28,17:30:00,DRY,0.97,11.03,63.3,775.33,337.3
2023-02-28,17:35:00,DRY,0.90,10.60,66.5,776.00,312.0
2023-02-28,17:40:00,DRY,1.13,9.67,71.7,776.00,293.0
2023-02-28,17:45:00,DRY,0.55,9.60,65.5,776.00,271.5
2023-02-28,17:50:00,DRY,0.83,9.87,66.7,776.00,250.3
2023-02-28,17:55:00,DRY,1.30,9.60,69.5,776.00,228.5
2023-02-28,18:00:00,DRY,0.73,9.23,72.0,776.00,207.3
2023-02-28,18:05:00,DRY,0.40,9.25,67.0,776.00,187.5
2023-02-28,18:10:00,DRY,1.00,9.47,63.7,776.00,168.3
2023-02-28,18:15:00,DRY,1.15,9.30,68.5,776.00,148.0
2023-02-28,18:20:00,DRY,0.60,8.93,73.3,776.00,127.3
2023-02-28,18:25:00,DRY,0.90,9.05,71.0,776.00,108.0
2023-02-28,18:30:00,DRY,0.70,9.13,70.7,776.00,89.7
2023-02-28,18:35:00,DRY,0.25,8.85,73.0,776.00,72.0
2023-02-28,18:40:00,DRY,1.20,9.73,67.0,776.00,56.0
2023-02-28,18:45:00,DRY,0.85,10.15,58.0,776.00,40.5
2023-02-28,18:50:00,DRY,0.47,10.13,61.3,776.00,13.7
2023-02-28,18:55:00,DRY,0.65,9.55,67.5,776.00,5.0
2023-02-28,19:00:00,DRY,0.73,8.77,72.7,776.00,2.0
2023-02-28,19:05:00,DRY,0.95,8.55,72.0,776.00,0.5
2023-02-28,19:10:00,DRY,1.03,8.57,71.0,776.00,0.3
2023-02-28,19:15:00,DRY,0.50,8.60,59.0,776.00,0.0
2023-02-28,19:20:00,DRY,0.77,8.80,48.0,776.00,0.0
2023-02-28,19:25:00,DRY,1.35,8.80,46.5,776.00,0.0
2023-02-28,19:30:00,DRY,1.13,8.63,46.3,776.00,0.0
2023-02-28,19:35:00,DRY,1.30,8.35,54.0,776.00,0.0